Kuiper-00015

operational
NORAD ID: 63731 Int'l Des: 2025-088 Owner: KUIP Country: US Constellation: kuiper
LEOCIRCULAR

关于 Kuiper-00015

正在加载描述...

实时位置

正在加载3D地球...

即将过境

高度历史

Altitude vs Time

uPlot chart will show altitude changes over time

两行轨道根数

1 63731U 25088H 25341.24422094 .00003481 00000-0 46300-3 0 9997
2 63731 51.8978 168.9113 0011226 129.2676 230.9285 14.81942176 33989
Epoch: Dec 7, 2025 • Age: 16 hours

当前状态

高度 631.2 km
速度 7.54 km/s
星下点 -7.28°S, 113.21°E
发射日期 Apr 28, 2025
运行时间 0.6 years
类型 internet

技术详情

分类 Payload
质量 490.00 kg
干质量 490.00 kg
总质量 490.00 kg
长度 1.80 m
直径 0.70 m
跨度 5.00 m
形状 Box + 2 pan
制造商 KUIP
平台类型 Kuiper
阶段状态 In Orbit
所有者/国家 KUIP/US

大型星座

Loading constellations...